Location: ???? ?????????
(31.1304°N, 31.7111°E)
Time: 18:41:59
(UTC+00:00)

Cosmos 1697 Rocket - Pass Details

Date: 29 October 2020
Orbit: 831 x 845 km, 71.0° (Epoch: 01 December)

Event Time Altitude Azimuth Distance (km) Brightness Sun altitude
Rises 15:19:45 0° 180° (S) 3,357 6.0 -3.5°
Reaches altitude 10° 15:22:18 10° 172° (S) 2,428 5.2 -4.0°
Maximum altitude 15:27:28 40° 104° (ESE) 1,203 3.1 -5.1°
Drops below altitude 10° 15:32:40 10° 36° (NE) 2,446 4.7 -6.2°
Sets 15:35:14 0° 30° (NNE) 3,385 5.4 -6.7°
